Location: Adrasan
(36.3319°N, 30.4314°E)
Time: 07:27:13
(UTC+00:00)

Cosmos 2251 Rocket - Pass Details

Date: 09 December 2023
Orbit: 763 x 790 km, 74.0° (Epoch: 29 February)

Event Time Altitude Azimuth Distance (km) Brightness Sun altitude
Rises 15:01:03 0° 346° (NNW) 3,281 6.6 -4.1°
Reaches altitude 10° 15:03:29 10° 351° (N) 2,352 5.9 -4.5°
Maximum altitude 15:08:46 58° 70° (ENE) 915 3.6 -5.5°
Drops below altitude 10° 15:14:01 10° 149° (SSE) 2,345 6.0 -6.4°
Sets 15:16:26 0° 153° (SSE) 3,271 6.7 -6.9°
